Location: Baia Mare
(47.6567°N, 23.5850°E)
Time: 08:39:01
(UTC+02:00)

ISS - Pass Details

Date: 28 September 2018
Orbit: 402 x 408 km, 51.6° (Epoch: 18 November)

Event Time Altitude Azimuth Distance (km) Brightness Sun altitude
Rises 20:54:15 0° 269° (W) 2,343 1.4 -17.9°
Reaches altitude 10° 20:56:24 10° 276° (W) 1,482 0.2 -18.3°
Maximum altitude 20:59:36 44° 350° (N) 580 -2.9 -18.8°
Enters shadow 21:00:24 36° 31° (NNE) 671 -2.9 -18.9°
